Other Public Products
Issued by NWS Charleston, SC

Current Version | Previous Version | Text Only | Print | Product List | Glossary Off
Versions: 1 2 3 4 5 6 7 8 9 10 11 12 13 14 15 16 17 18 19 20 21 22 23 24 25 26 27 28 29 30 31 32 33 34 35 36 37 38 39 40 41 42 43 44 45 46 47 48 49 50

000
FPUS82 KCHS 290327
OPUCHS

TEST...KCHS/KSAV Gateway Observations...TEST
National Weather Service Charleston SC
1100 PM EDT SUN MAY 28 2017

NOTE: "fair" indicates few or no clouds below 12,000 feet with no
significant weather and/or obstructions to visibility.

SCZ050-WAZ558-NCZ071-TXZ119-213-PAZ071-DCZ001-FLZ074-172-MI076-
NYZ176-178-MAZ016-IL014-TNZ027-NJZ106-GAZ044-MD014-290400-

...Gateway Observations for Charleston International...

CITY           SKY/WX    TMP DP  RH WIND       PRES   REMARKS
Chas Airport   PTCLDY    77  73  87 S9        29.90R
Seattle        PTCLDY    79  51  37 N8        30.01R
Charlotte      MOCLDY    69  66  90 CALM      29.89R
Dallas DFW     CLOUDY    75  70  84 CALM      29.97R
Dallas Love    CLOUDY    76  69  79 E3        29.97R
Philladelphia  LGT RAIN  60  57  89 E10       29.88S
Wash National  CLOUDY    66  65  96 NE8       29.84S
Baltimore      CLOUDY    64  64 100 E8        29.84S
Miami          CLEAR     85  69  58 W8        30.03R
Detroit        TSTM      62  60  93 S8        29.72F
Newark         CLOUDY    61  53  75 E9        29.92F
Laguardia      CLOUDY    62  50  64 E14       29.93S
J F K          CLOUDY    60  55  83 E10       29.94S
Boston Logan   CLOUDY    58  48  69 S9        30.00S
Ft. Lauderdale PTCLDY    84  78  82 NW7       30.01R HX  95
Chicago O`Hare CLEAR     68  46  45 W5        29.76R
Chicago Midway CLEAR     69  50  50 W6        29.77R
Houston Bush   CLOUDY    81  74  79 SE7       29.96R
Houston Hobby  CLOUDY    81  75  82 E3        29.96R
Nashville      MOCLDY    73  64  73 W3        29.94R
Atlanta        CLOUDY    74  65  73 W8        29.95R

$$

GAZ044-118-TXZ119-213-NCZ071-DCZ001-MDZ014-506-PAZ021-071-NJZ106-
NYZ176-178-MAZ106-OHZ011-021-055-MIZ076-KYZ091-ILZ014-INZ047-
MNZ060-ONZ431-290400-

...Gateway Observations for Savannah International...

CITY           SKY/WX    TMP DP  RH WIND       PRES   REMARKS
Savannah Arpt  CLEAR     78  68  71 S3        29.92R
Atlanta        CLOUDY    74  65  73 W8        29.95R
Charlotte      MOCLDY    69  66  90 CALM      29.89R
Dallas DFW     CLOUDY    75  70  84 CALM      29.97R
Houston Bush   CLOUDY    81  74  79 SE7       29.96R
Wash National  CLOUDY    66  65  96 NE8       29.84S
Wash Dulles    DRIZZLE   65  63  93 E5        29.83F FOG
Baltimore      CLOUDY    64  64 100 E8        29.84S
Philadelphia   LGT RAIN  60  57  89 E10       29.88S
Newark         CLOUDY    61  53  75 E9        29.92F
Laguardia      CLOUDY    62  50  64 E14       29.93S
J F K          CLOUDY    60  55  83 E10       29.94S
Boston         CLOUDY    58  48  69 S9        30.00S
Pittsburg      MOCLDY    71  63  75 SW9       29.77S
Akron          CLOUDY    64  59  83 W5        29.79R
Cleveland      CLOUDY    65  61  87 S9        29.74F
Cincinnati     TSTM      65  62  90 W9        29.85R
Columbus       CLOUDY    68  63  83 SW8       29.78S
Detroit        TSTM      62  60  93 S8        29.72F
Chicago O`Hare CLEAR     68  46  45 W5        29.76R
Minneapolis    PTCLDY    57  48  72 NW6       29.74S
Indianapolis   PTCLDY    62  61  96 SW5       29.83R
Toronto Canada CLOUDY    64  57  77 E6        29.68F

$$




USA.gov is the U.S. government's official web portal to all federal, state and local government web resources and services.